Indianapolis, IN

10:48 AM EDT on March 23, 2017 (GMT -0400)
Indianapolis International

Weather History for KIND - August, 2013

Change the Weather History Date:

Thursday, August 22, 2013

  Actual Average Record
Temperature  
Mean Temperature 78 °F 74 °F  
Max Temperature 88 °F 84 °F 101 °F (1936)
Min Temperature 68 °F 64 °F 46 °F (1950)
Degree Days  
Heating Degree Days 0 0  
Month to date heating degree days 5 0  
Since 1 June heating degree days 17 17  
Since 1 July heating degree days 8 1  
Cooling Degree Days 13 9  
Month to date cooling degree days 187 214  
Year to date cooling degree days 827 847  
Since 1 June cooling degree days 698 763  
Growing Degree Days 28 (Base 50)    
Moisture  
Dew Point 65 °F    
Average Humidity 69    
Maximum Humidity 87    
Minimum Humidity 50    
Precipitation  
Precipitation 0.00 in 0.10 in 1.90 in (1989)
Month to date precipitation 0.85 2.23  
Year to date precipitation 29.63 28.43  
Snow  
Snow 0.00 in 0.00 in 0.00 in ()
Month to date snowfall 0.0 0.0  
Since 1 June snowfall 0.0 0.0  
Since 1 July snowfall 0.0 0.0  
Snow Depth 0.00 in    
Sea Level Pressure  
Sea Level Pressure 30.06 in    
Wind  
Wind Speed 8 mph (West)    
Max Wind Speed 21 mph    
Max Gust Speed 28 mph    
Visibility 10 miles    
Events      
T = Trace of Precipitation, MM = Missing Value Source: NWS Daily Summary

Daily Weather History Graph

Daily Weather History Graph

Search for Another Location

Airport or City:

Trip Planner

Search our weather history database for the weather conditions in past years. The results will help you decide how hot, cold, wet, or windy it might be!

Date:

Astronomy

Aug. 22, 2013 Rise Set
Actual Time 7:04 AM EDT 8:31 PM EDT
Civil Twilight 6:35 AM EDT 8:59 PM EDT
Nautical Twilight 6:01 AM EDT 9:33 PM EDT
Astronomical Twilight 5:25 AM EDT 10:09 PM EDT
Moon 9:15 PM EDT (8/22) 8:51 AM EDT (8/22)
Length of Visible Light 14h 23m
Length of Day
13h 27m
Waning Gibbous, 97% of the Moon is Illuminated
Aug 22
Waning Gibbous
Aug 28
Last Quarter
Sep 5
New
Sep 12
First Quarter
Sep 19
Full

Hourly Weather History & Observations

Time (EDT) Temp. Heat Index Dew Point Humidity Pressure Visibility Wind Dir Wind Speed Gust Speed Precip Events Conditions
12:54 AM 72.0 °F - 66.0 °F 81% 30.07 in 10.0 mi WSW 5.8 mph - N/A   Clear
1:54 AM 71.1 °F - 66.0 °F 84% 30.06 in 10.0 mi WSW 4.6 mph - N/A   Partly Cloudy
2:54 AM 70.0 °F - 64.9 °F 84% 30.07 in 9.0 mi SW 5.8 mph - N/A   Mostly Cloudy
3:54 AM 70.0 °F - 64.9 °F 84% 30.06 in 9.0 mi WSW 4.6 mph - N/A   Mostly Cloudy
4:54 AM 70.0 °F - 64.9 °F 84% 30.07 in 9.0 mi West 4.6 mph - N/A   Overcast
5:54 AM 69.1 °F - 64.9 °F 87% 30.08 in 8.0 mi Calm Calm - N/A   Overcast
6:54 AM 69.1 °F - 64.9 °F 87% 30.08 in 8.0 mi SSW 6.9 mph - N/A   Mostly Cloudy
7:54 AM 68.0 °F - 64.9 °F 90% 30.08 in 7.0 mi SW 6.9 mph - N/A   Scattered Clouds
8:54 AM 72.0 °F - 66.0 °F 81% 30.07 in 10.0 mi WSW 9.2 mph - N/A   Scattered Clouds
9:54 AM 78.1 °F - 66.9 °F 68% 30.07 in 8.0 mi WSW 10.4 mph - N/A   Scattered Clouds
10:54 AM 82.0 °F 84.9 °F 68.0 °F 62% 30.09 in 10.0 mi WSW 9.2 mph - N/A   Scattered Clouds
11:54 AM 84.9 °F 87.6 °F 66.9 °F 55% 30.09 in 10.0 mi West 10.4 mph - N/A   Mostly Cloudy
12:54 PM 87.1 °F 89.2 °F 66.0 °F 49% 30.08 in 10.0 mi West 11.5 mph 16.1 mph N/A   Mostly Cloudy
1:54 PM 84.9 °F 86.6 °F 64.9 °F 51% 30.08 in 10.0 mi WNW 11.5 mph - N/A   Mostly Cloudy
2:54 PM 84.0 °F 85.8 °F 64.9 °F 53% 30.07 in 10.0 mi NNW 11.5 mph - N/A   Mostly Cloudy
3:54 PM 84.9 °F 86.1 °F 64.0 °F 49% 30.06 in 10.0 mi NNW 13.8 mph 19.6 mph N/A   Overcast
4:54 PM 82.0 °F 83.8 °F 64.9 °F 56% 30.06 in 10.0 mi North 18.4 mph 24.2 mph N/A   Mostly Cloudy
5:54 PM 78.1 °F - 64.0 °F 62% 30.07 in 10.0 mi North 19.6 mph 24.2 mph N/A   Mostly Cloudy
6:54 PM 77.0 °F - 63.0 °F 62% 30.04 in 10.0 mi NE 13.8 mph - N/A   Mostly Cloudy
7:54 PM 75.0 °F - 63.0 °F 66% 30.02 in 10.0 mi SE 6.9 mph - N/A   Mostly Cloudy
8:54 PM 73.0 °F - 64.0 °F 73% 30.02 in 10.0 mi SSE 5.8 mph - N/A   Mostly Cloudy
9:54 PM 73.9 °F - 64.0 °F 71% 30.04 in 10.0 mi Calm Calm - N/A   Mostly Cloudy
10:54 PM 73.0 °F - 64.0 °F 73% 30.05 in 10.0 mi Calm Calm - N/A   Overcast
11:54 PM 73.0 °F - 64.9 °F 76% 30.07 in 10.0 mi North 5.8 mph - N/A   Overcast